Stations météo

réclame
Mon MeteoGroup
Herrera del Duque, Espagne (8264): Température de l'air & dewpoint: 12.06.2018 13:00:00 - 18.06.2018 13:00:00 (CEST)Herrera del Duque, Espagne (8264): Vitesse du vent & gusts: 12.06.2018 13:00:00 - 18.06.2018 13:00:00 (CEST)Herrera del Duque, Espagne (8264): Direction du vent: 12.06.2018 13:00:00 - 18.06.2018 13:00:00 (CEST)Herrera del Duque, Espagne (8264): reduced air pressure: 12.06.2018 13:00:00 - 18.06.2018 13:00:00 (CEST)Herrera del Duque, Espagne (8264): visibility: 12.06.2018 13:00:00 - 18.06.2018 13:00:00 (CEST)Herrera del Duque, Espagne (8264): Ensoleillement: 12.06.2018 13:00:00 - 18.06.2018 13:00:00 (CEST)Herrera del Duque, Espagne (8264): Quantités de précipitations: 12.06.2018 13:00:00 - 18.06.2018 13:00:00 (CEST)
Date & Time tt [°C] td [°C] ff [km/h] ff [knt] fx [km/h] fx [knt] dd ppp [hPa] vv [km] sd [min] rr [mm]
18.06.2018 13:00:00 - - - - - - - - - - -
18.06.2018 12:00:00 31,5 3,4 18 10 32 17 E 1017,8 20 60 0,0
18.06.2018 11:00:00 30,4 5,0 16 9 27 14 ENE 1018,4 20 60 0,0
18.06.2018 10:00:00 29,2 5,3 12 7 23 12 ENE 1018,6 18 60 0,0
18.06.2018 09:00:00 27,3 5,0 8 4 13 7 NNE 1018,7 20 60 0,0
18.06.2018 08:00:00 22,8 5,3 4 2 8 4 E 1019,1 19 44 -
18.06.2018 07:00:00 19,9 5,9 2 1 7 4 W 1019,4 20 0 0,0
18.06.2018 06:00:00 21,2 4,3 4 2 7 4 W 1019,1 20 0 0,0
18.06.2018 05:00:00 21,6 5,1 5 3 9 5 W 1018,8 20 0 0,0
18.06.2018 04:00:00 22,6 6,7 3 2 11 6 NE 1018,6 20 0 0,0
18.06.2018 03:00:00 23,6 7,3 3 1 16 9 N 1018,4 20 0 0,0
18.06.2018 02:00:00 24,9 7,1 5 3 16 9 N 1018,7 20 0 -
18.06.2018 01:00:00 26,2 6,2 7 4 32 18 W 1018,2 20 0 0,0
18.06.2018 00:00:00 26,3 5,8 6 4 10 5 NNE 1017,9 20 0 0,0
17.06.2018 23:00:00 27,9 6,1 6 3 10 6 NNE 1017,3 20 0 0,0
17.06.2018 22:00:00 30,4 4,1 3 1 13 7 NNE 1016,0 20 26 0,0
17.06.2018 21:00:00 34,1 3,8 11 6 24 13 N 1014,8 20 60 0,0
17.06.2018 20:00:00 35,7 4,1 10 5 26 14 NNW 1014,3 20 60 -
17.06.2018 19:00:00 36,1 4,3 12 6 24 13 N 1014,0 20 60 0,0
17.06.2018 18:00:00 36,4 5,6 12 7 29 16 N 1014,0 20 60 0,0
17.06.2018 17:00:00 36,6 4,8 12 7 26 14 NNW 1014,3 20 60 0,0
17.06.2018 16:00:00 36,5 4,6 11 6 23 13 N 1014,4 20 60 0,0
17.06.2018 15:00:00 35,3 5,6 11 6 24 13 N 1014,9 20 60 0,0
17.06.2018 14:00:00 34,8 4,3 8 4 20 11 NNW 1015,3 20 60 -
17.06.2018 13:00:00 33,7 4,5 7 4 16 9 ESE 1015,8 20 60 0,0
17.06.2018 12:00:00 32,1 6,2 5 3 15 8 NE 1016,1 20 60 0,0
17.06.2018 11:00:00 30,2 6,1 9 5 19 10 NE 1016,3 20 60 0,0
17.06.2018 10:00:00 27,7 4,6 4 2 13 7 NNW 1016,5 20 60 0,0
17.06.2018 09:00:00 24,6 6,4 4 2 8 4 WNW 1016,8 20 60 0,0
17.06.2018 08:00:00 21,4 7,3 4 2 6 3 SW 1016,7 20 43 -
17.06.2018 07:00:00 19,2 8,0 3 2 6 4 SSW 1016,6 20 0 0,0
17.06.2018 06:00:00 19,7 8,1 2 1 8 4 SW 1016,1 20 0 0,0
17.06.2018 05:00:00 20,4 8,1 4 2 9 5 SW 1015,8 20 0 0,0
17.06.2018 04:00:00 21,3 8,5 2 1 7 4 S 1015,4 20 0 0,0
17.06.2018 03:00:00 22,5 7,8 5 3 9 5 SW 1015,1 20 0 0,0
17.06.2018 02:00:00 23,1 9,2 2 1 8 5 S 1014,8 20 0 -
17.06.2018 01:00:00 24,5 10,0 5 3 10 5 W 1014,2 20 0 0,0
17.06.2018 00:00:00 25,2 9,0 5 3 13 7 NE 1013,7 20 0 0,0
16.06.2018 23:00:00 26,7 10,8 3 2 7 4 NW 1012,6 20 0 0,0
16.06.2018 22:00:00 28,7 10,4 5 3 10 5 SSE 1011,3 20 6 0,0
16.06.2018 21:00:00 31,9 9,4 8 5 19 11 WNW 1010,6 20 27 0,0
16.06.2018 20:00:00 34,0 7,8 14 7 23 12 WNW 1010,0 20 60 -
16.06.2018 19:00:00 34,3 7,4 11 6 20 11 NNW 1009,7 20 53 0,0
16.06.2018 18:00:00 35,5 5,8 7 4 22 12 NW 1009,8 20 60 0,0
16.06.2018 17:00:00 35,9 3,2 8 4 29 16 N 1009,9 20 60 0,0
16.06.2018 16:00:00 35,2 5,6 15 8 - - WNW 1010,2 20 60 0,0
16.06.2018 15:00:00 33,9 8,5 10 5 22 12 W 1010,6 20 43 0,0
16.06.2018 14:00:00 33,5 8,1 9 5 24 13 NNW 1011,3 17 60 -
16.06.2018 13:00:00 31,9 10,0 8 5 15 8 NW 1011,8 20 60 0,0
16.06.2018 12:00:00 30,2 10,6 6 3 13 7 NW 1012,3 17 60 0,0
16.06.2018 11:00:00 28,2 10,9 4 2 9 5 NNE 1012,6 20 60 0,0
16.06.2018 10:00:00 25,3 11,8 3 2 8 4 N 1013,0 20 60 0,0
16.06.2018 09:00:00 21,7 12,5 3 1 7 4 E 1013,3 20 60 0,0
16.06.2018 08:00:00 18,5 11,8 1 1 4 2 NE 1013,6 12 45 -
16.06.2018 07:00:00 16,3 10,6 1 1 4 2 ENE 1013,5 18 0 0,0
16.06.2018 06:00:00 18,3 11,3 3 2 6 3 SSE 1012,6 20 0 0,0
16.06.2018 05:00:00 18,1 10,6 0 0 4 2 N 1012,8 20 0 0,0
16.06.2018 04:00:00 18,3 10,2 1 1 6 3 E 1012,9 18 0 0,0
16.06.2018 03:00:00 19,5 9,9 3 2 6 3 SW 1012,8 20 0 0,0
16.06.2018 02:00:00 21,5 10,9 1 1 7 4 SW 1012,4 20 0 -
16.06.2018 01:00:00 22,6 9,4 3 2 16 9 N 1012,3 20 0 0,0
16.06.2018 00:00:00 23,1 9,2 3 2 7 4 NE 1012,0 8 0 0,0
15.06.2018 23:00:00 25,9 7,0 1 1 8 4 ENE 1011,2 18 0 0,0
15.06.2018 22:00:00 28,9 5,6 5 3 10 5 SW 1010,4 20 28 0,0
15.06.2018 21:00:00 32,5 5,9 9 5 16 9 WSW 1009,6 20 60 0,0
15.06.2018 20:00:00 33,6 5,1 8 4 22 12 WNW 1009,4 20 60 -
15.06.2018 19:00:00 33,7 4,5 11 6 21 12 NW 1009,5 20 60 0,0
15.06.2018 18:00:00 33,7 4,5 11 6 23 13 WNW 1010,1 20 60 0,0
15.06.2018 17:00:00 33,5 2,3 9 5 22 12 WNW 1010,6 20 60 0,0
15.06.2018 16:00:00 33,0 1,9 12 7 23 12 WNW 1011,2 20 60 0,0
15.06.2018 15:00:00 32,0 3,0 7 4 22 12 NW 1012,1 20 60 0,0
15.06.2018 14:00:00 31,1 2,3 13 7 23 12 WNW 1012,8 20 60 -
15.06.2018 13:00:00 30,4 4,1 8 4 16 9 WSW 1013,3 20 60 0,0
15.06.2018 12:00:00 29,4 6,1 5 3 13 7 NNW 1013,7 20 60 0,0
15.06.2018 11:00:00 26,2 6,7 5 3 9 5 W 1014,5 20 60 0,0
15.06.2018 10:00:00 23,1 5,9 3 2 8 4 W 1015,1 20 60 0,0
15.06.2018 09:00:00 20,8 7,7 3 1 6 3 ENE 1015,0 20 60 0,0
15.06.2018 08:00:00 16,2 8,0 3 2 6 3 NW 1015,8 20 54 -
15.06.2018 07:00:00 15,5 7,0 2 1 7 4 SSW 1015,4 20 0 0,0
15.06.2018 06:00:00 16,3 7,0 4 2 8 4 WSW 1015,3 20 0 0,0
15.06.2018 05:00:00 16,7 6,8 3 1 6 3 SW 1015,2 20 0 0,0
15.06.2018 04:00:00 17,3 6,8 4 2 7 4 SW 1015,3 20 0 0,0
15.06.2018 03:00:00 18,1 5,9 3 2 5 3 SW 1015,2 20 0 0,0
15.06.2018 02:00:00 19,0 7,7 3 2 8 5 WNW 1015,4 20 0 -
15.06.2018 01:00:00 20,6 5,5 4 2 7 4 SSE 1015,0 20 0 0,0
15.06.2018 00:00:00 20,3 4,8 2 1 8 5 SE 1015,0 20 0 0,0
14.06.2018 23:00:00 23,2 3,6 4 2 8 4 SSE 1014,0 20 0 0,0
14.06.2018 22:00:00 25,9 2,5 3 1 10 5 SSW 1013,1 20 31 0,0
14.06.2018 21:00:00 29,8 -0,5 8 4 16 9 N 1012,2 20 60 0,0
14.06.2018 20:00:00 30,5 0,0 12 6 20 11 N 1011,9 20 60 -
14.06.2018 19:00:00 30,0 -0,5 7 4 21 12 NNE 1011,9 20 51 0,0
14.06.2018 18:00:00 30,8 0,2 11 6 23 12 N 1011,9 20 60 0,0
14.06.2018 17:00:00 31,3 -0,5 14 8 - - NNE 1012,1 19 60 0,0
14.06.2018 16:00:00 30,4 2,7 10 5 28 15 ENE 1012,7 20 60 0,0
14.06.2018 15:00:00 29,8 4,5 10 5 21 11 E 1013,2 20 60 0,0
14.06.2018 14:00:00 28,5 4,6 9 5 22 12 NE 1014,1 20 60 -
14.06.2018 13:00:00 27,4 5,0 7 4 22 12 E 1014,4 20 60 0,0
14.06.2018 12:00:00 26,5 4,8 13 7 - - ENE 1014,8 20 - -
14.06.2018 11:00:00 25,3 5,0 10 5 24 13 ENE 1015,0 20 60 0,0
14.06.2018 10:00:00 22,6 5,9 11 6 18 10 ENE 1015,7 20 60 0,0
14.06.2018 09:00:00 18,3 8,5 3 2 6 3 WSW 1016,4 19 52 0,0
14.06.2018 08:00:00 15,2 8,0 1 1 6 3 NNE 1016,6 18 16 -
14.06.2018 07:00:00 14,5 7,3 5 3 7 4 SW 1016,6 20 0 0,0
14.06.2018 06:00:00 14,4 7,3 3 1 8 5 SSW 1016,3 20 0 0,0
14.06.2018 05:00:00 15,6 6,5 5 3 11 6 SW 1016,2 20 0 0,0
14.06.2018 04:00:00 17,0 6,5 6 3 9 5 WSW 1016,1 20 0 0,0
14.06.2018 03:00:00 18,2 5,8 6 3 15 8 NE 1015,8 20 0 0,0
14.06.2018 02:00:00 18,8 5,9 6 3 14 8 E 1015,9 20 0 -
14.06.2018 01:00:00 20,0 6,4 8 4 11 6 ENE 1015,8 20 0 0,0
14.06.2018 00:00:00 19,9 8,5 3 2 8 5 ESE 1015,6 20 0 0,0
13.06.2018 23:00:00 21,6 7,0 3 2 8 4 SSE 1014,9 20 0 0,0
13.06.2018 22:00:00 24,4 5,6 5 3 19 10 SW 1013,7 20 20 0,0
13.06.2018 21:00:00 27,5 5,1 14 7 25 13 NW 1013,1 20 60 0,0
13.06.2018 20:00:00 29,2 5,3 10 6 26 14 W 1012,7 20 47 -
13.06.2018 19:00:00 28,3 7,0 15 8 - - W 1013,0 20 - -
13.06.2018 18:00:00 - - - - - - - - - - -
13.06.2018 17:00:00 28,9 6,8 9 5 - - WNW 1014,7 - - -
13.06.2018 16:00:00 - - - - - - - - - - -
13.06.2018 15:00:00 - - - - - - - - - - -
13.06.2018 14:00:00 27,3 8,7 - - - - - 1015,8 4,4 - -
13.06.2018 13:00:00 - - - - - - - - - - -
13.06.2018 12:00:00 - - - - - - - - - - -
13.06.2018 11:00:00 - - - - - - - - - - -
13.06.2018 10:00:00 - - - - - - - - - - -
13.06.2018 09:00:00 - - - - - - - - - - -
13.06.2018 08:00:00 - - - - - - - - - - -
13.06.2018 07:00:00 - - - - - - - - - - -
13.06.2018 06:00:00 - - - - - - - - - - -
13.06.2018 05:00:00 - - - - - - - - - - -
13.06.2018 04:00:00 - - - - - - - - - - -
13.06.2018 03:00:00 - - - - - - - - - - -
13.06.2018 02:00:00 - - - - - - - - - - -
13.06.2018 01:00:00 - - - - - - - - - - -
13.06.2018 00:00:00 - - - - - - - - - - -
12.06.2018 23:00:00 - - - - - - - - - - -
12.06.2018 22:00:00 - - - - - - - - - - -
12.06.2018 21:00:00 - - - - - - - - - - -
12.06.2018 20:00:00 - - - - - - - - - - -
12.06.2018 19:00:00 - - - - - - - - - - -
12.06.2018 18:00:00 - - - - - - - - - - -
12.06.2018 17:00:00 - - - - - - - - - - -
12.06.2018 16:00:00 - - - - - - - - - - -
12.06.2018 15:00:00 - - - - - - - - - - -
12.06.2018 14:00:00 - - - - - - - - - - -
12.06.2018 13:00:00 - - - - - - - - - - -

tt = Température de l'air
td = dewpoint
ff = Vitesse du vent
fx = gusts
dd = Direction du vent
ppp = reduced air pressure
vv = visibility
sd = Ensoleillement
rr = Quantités de précipitations

stations d'obs. à proximité